Regional Weather Roundup
Issued by NWS

Home | Current Version | Previous Version | Text Only | Print | Product List | Glossary On
Versions: 1 2 3 4 5 6 7 8 9 10 11 12 13 14 15 16 17 18 19 20 21 22 23 24 25 26 27 28 29 30 31 32 33 34 35 36 37 38 39 40 41 42 43 44 45 46 47 48 49 50
000
ASUS45 KPSR 221910
RWRAZ

ARIZONA REGIONAL HOURLY WEATHER ROUNDUP
NATIONAL WEATHER SERVICE PHOENIX AZ
1200 PM MST TUE JUL 22 2014

NOTE: FAIR INDICATES FEW OR NO CLOUDS BELOW 12,000 FEET WITH NO
SIGNIFICANT WEATHER AND/OR OBSTRUCTIONS TO VISIBILITY.

AZZ001>003-036-222000-
NORTHWEST ARIZONA

CITY           SKY/WX    TMP DP  RH WIND       PRES   REMARKS
BULLHEAD CITY  SUNNY    104  36   9 SW8       29.94F
KINGMAN        SUNNY     96  34  11 S10       30.15S
$$

AZZ004>008-015-016-018-222000-
NORTH CENTRAL ARIZONA

CITY           SKY/WX    TMP DP  RH WIND       PRES   REMARKS
GRAND CANYON   SUNNY     88  33  14 SE10      30.39F
WILLIAMS       PTSUNNY   82  36  18 E3        30.46S
PRESCOTT       PTSUNNY   94  37  13 VRB5      30.26F
FLAGSTAFF      CLOUDY    81  29  15 E12G18    30.44S
PAYSON         PTSUNNY   91  37  15 W8        30.28S
PAGE           SUNNY     96  24   7 VRB3      30.21F
$$

AZZ009>014-017-222000-
NORTHEAST ARIZONA

CITY           SKY/WX    TMP DP  RH WIND       PRES   REMARKS
WINSLOW        PTSUNNY   92  32  12 VRB6      30.27F
SAINT JOHNS    MOSUNNY   90  40  17 NE12G18   30.31F
WINDOW ROCK    MOSUNNY   92  27   9 SE9       30.41S
SHOW LOW       PTSUNNY   81  39  22 S14       30.41R
$$

AZZ023-222000-
GREATER PHOENIX AREA

CITY           SKY/WX    TMP DP  RH WIND       PRES   REMARKS
PHOENIX        PTSUNNY  104  45  13 NW7       29.93F HX 100
BUCKEYE          N/A    102  45  14 S6        29.94F
GLENDALE       PTSUNNY  102  48  16 E3        29.94F
LUKE AFB       NOT AVBL
DEER VALLEY    MOSUNNY  102  45  14 CALM      29.95F
SCOTTSDALE     MOSUNNY  101  47  16 VRB5      29.97F
MESA-FALCON    PTSUNNY  100  46  16 W8        29.95F
CHANDLER       PTSUNNY  100  50  18 CALM      29.95F
$$

AZZ027-028-222000-
SOUTHWEST MARICOPA COUNTY AND PINAL COUNTY

CITY           SKY/WX    TMP DP  RH WIND       PRES   REMARKS
CASA GRANDE    MOSUNNY  102  50  17 NW3       29.97F
GILA BEND      PTCLDY   106  41  11 NW5       29.94F HX 100
$$

AZZ503-504-507>509-222000-
SOUTHEAST ARIZONA

CITY           SKY/WX    TMP DP  RH WIND       PRES   REMARKS
TUCSON         PTSUNNY   98  45  16 NE3       30.07F
DAVIS-MONTHAN  MOSUNNY   96  47  18 NW2       30.06S
RYAN FIELD       N/A     99  48  18 NW10G16   30.05F
NOGALES        PTSUNNY   95  46  18 N8        30.15F
SIERRA VISTA   CLOUDY    84  45  24 CALM      30.24S
DOUGLAS        PTSUNNY   88  55  32 CALM      30.18F
SAFFORD        MOSUNNY  100  44  14 MISG      30.06F
$$

AZZ020-021-025-026-031-222000-
SOUTHWEST ARIZONA

CITY           SKY/WX    TMP DP  RH WIND       PRES   REMARKS
YUMA           NOT AVBL
$$

CAZ031-033-041-043-047-048-061-222000-
SOUTHERN CALIFORNIA

CITY           SKY/WX    TMP DP  RH WIND       PRES   REMARKS
DOWNTOWN L.A.  SUNNY     83  63  50 VRB6      30.03F
L.A. AIRPORT   MOSUNNY   76  60  57 W14       30.06S
SAN DIEGO      MOSUNNY   74  62  66 NW12      30.06F
BURBANK        SUNNY     83  56  39 SW5       30.04F
ONTARIO        MOSUNNY   86  55  34 SW9       30.04F
RIVERSIDE      SUNNY     85  56  37 W8        30.04F
PALM SPRINGS   SUNNY    105  35   9 N5        29.94S
EL CENTRO NAS  MOSUNNY  105  40  11 CALM      29.88F
IMPERIAL       SUNNY    104  41  11 VRB5      29.88F
BLYTHE         SUNNY    105  39  10 CALM      29.91F
NEEDLES        SUNNY    105  31   7 CALM      29.95F
$$

NVZ020-UTZ003-222000-
SOUTHERN NEVADA-UTAH

CITY           SKY/WX    TMP DP  RH WIND       PRES   REMARKS
LAS VEGAS      SUNNY     98  26   7 VRB5      30.00F
SALT LAKE CITY MOSUNNY   92  31  11 SW9       30.19F
$$

NMZ009-TXZ055-222000-
NEW MEXICO-WEST TEXAS

CITY           SKY/WX    TMP DP  RH WIND       PRES   REMARKS
ALBUQUERQUE    MOSUNNY   91  47  21 N6        30.27F
EL PASO        MOSUNNY   95  54  25 VRB3      30.13F
$$


........................KEY........................
SKY/WX - SKY CONDITION/WEATHER
TMP    - TEMPERATURE IN FAHRENHEIT
DP     - DEW POINT IN FAHRENHEIT
RH     - RELATIVE HUMIDITY IN PERCENT
WIND   - DIRECTION AND SPEED IN MILES PER HOUR (MPH)
VRB    - VARIABLE WIND DIRECTION
PRES   - MEAN SEA LEVEL PRESSURE IN INCHES OF MERCURY
         F - FALLING PRESSURE   R - RISING PRESSURE
         S - STEADY PRESSURE
VSB    - VISIBILITY IN MILES
HX     - HEAT INDEX IN FAHRENHEIT
WCI    - WIND CHILL INDEX IN FAHRENHEIT
TC     - TEMPERATURE IN CELSIUS WHICH IS ALSO KNOWN AS
         TEMPERATURE IN CENTIGRADE
AFB    - AIR FORCE BASE
         LUKE AFB IS LUKE AIR FORCE BASE
         DAVIS-MONTHAN IS DAVIS-MONTHAN AIR FORCE BASE
NAS    - NAVAL AIR STATION
         EL CENTRO NAS IS EL CENTRO NAVAL AIR STATION
N/A    - NOT AVAILABLE


USA.gov is the U.S. government's official web portal to all federal, state and local government web resources and services.